Weather History for KMMU - March, 2013

Change the Weather History Date:

Tuesday, March 19, 2013

  Actual Average Record
Temperature  
Mean Temperature 40 °F -  
Max Temperature 46 °F 47 °F 77 °F (2012)
Min Temperature 33 °F 27 °F -2 °F (1967)
Degree Days  
Heating Degree Days 26    
Moisture  
Dew Point 32 °F    
Average Humidity 81    
Maximum Humidity 100    
Minimum Humidity 39    
Precipitation  
Precipitation 0.01 in - - ()
Sea Level Pressure  
Sea Level Pressure 29.82 in    
Wind  
Wind Speed 7 mph (NNE)    
Max Wind Speed 13 mph    
Max Gust Speed 21 mph    
Visibility 7 miles    
Events Rain , Snow    
Averages and records for this station are not official NWS values.
T = Trace of Precipitation, MM = Missing Value Source: NWS Daily Summary

Daily Weather History Graph

Daily Weather History Graph

Search for Another Location

Airport or City:

Trip Planner

Search our weather history database for the weather conditions in past years. The results will help you decide how hot, cold, wet, or windy it might be!

Date:

Astronomy

Mar. 19, 2013 Rise Set
Actual Time 7:02 AM EDT 7:08 PM EDT
Civil Twilight 6:35 AM EDT 7:36 PM EDT
Nautical Twilight 6:03 AM EDT 8:08 PM EDT
Astronomical Twilight 5:30 AM EDT 8:40 PM EDT
Moon 11:48 AM EDT (3/19) 1:56 AM EDT (3/19)
Length of Visible Light 13h 01m
Length of Day
12h 06m
Waxing Crescent, 49% of the Moon is Illuminated
Mar 19
Waxing Crescent
Mar 19
First Quarter
Mar 27
Full
Apr 3
Last Quarter
Apr 10
New

Hourly Weather History & Observations

Time (EDT) Temp. Windchill Dew Point Humidity Pressure Visibility Wind Dir Wind Speed Gust Speed Precip Events Conditions
12:15 AM 35.6 °F 31.7 °F 32.0 °F 87% 30.00 in 7.0 mi ENE 4.6 mph - N/A   Overcast
12:35 AM 35.6 °F 29.2 °F 32.0 °F 87% 29.98 in 7.0 mi ENE 8.1 mph - N/A   Overcast
12:55 AM 35.6 °F 29.9 °F 32.0 °F 87% 29.95 in 5.0 mi ENE 6.9 mph 16.1 mph N/A   Overcast
1:15 AM 35.6 °F 29.2 °F 32.0 °F 87% 29.94 in 4.0 mi ENE 8.1 mph - N/A   Overcast
1:35 AM 35.6 °F 29.2 °F 32.0 °F 87% 29.93 in 5.0 mi NE 8.1 mph 16.1 mph N/A   Overcast
1:55 AM 35.6 °F 28.6 °F 32.0 °F 87% 29.92 in 5.0 mi NE 9.2 mph - N/A   Overcast
2:15 AM 35.6 °F 29.2 °F 32.0 °F 87% 29.92 in 4.0 mi NE 8.1 mph - N/A Snow Light Snow
2:35 AM 35.6 °F 30.7 °F 32.0 °F 87% 29.92 in 3.0 mi NNE 5.8 mph - N/A Snow Light Snow
2:55 AM 35.6 °F 32.8 °F 33.8 °F 93% 29.90 in 3.0 mi ENE 3.5 mph - N/A Snow Light Snow
3:15 AM 35.6 °F 29.2 °F 33.8 °F 93% 29.89 in 7.0 mi NNE 8.1 mph - N/A   Overcast
3:35 AM 35.6 °F 28.6 °F 32.0 °F 87% 29.88 in 10.0 mi NE 9.2 mph - N/A   Overcast
3:55 AM 35.6 °F 28.6 °F 32.0 °F 87% 29.85 in 7.0 mi NE 9.2 mph - N/A   Overcast
4:15 AM 35.6 °F 29.2 °F 32.0 °F 87% 29.85 in 10.0 mi NE 8.1 mph - N/A   Overcast
4:35 AM 35.6 °F 30.7 °F 32.0 °F 87% 29.84 in 10.0 mi NE 5.8 mph - N/A   Overcast
4:55 AM 35.6 °F 28.0 °F 32.0 °F 87% 29.83 in 10.0 mi NE 10.4 mph - N/A   Overcast
5:15 AM 35.6 °F 29.2 °F 33.8 °F 93% 29.83 in 10.0 mi NNE 8.1 mph - N/A   Overcast
5:35 AM 35.6 °F 29.9 °F 33.8 °F 93% 29.82 in 10.0 mi NE 6.9 mph - 0.01 in   Overcast
5:55 AM 35.6 °F 29.2 °F 33.8 °F 93% 29.80 in 7.0 mi NE 8.1 mph - N/A   Overcast
6:15 AM 35.6 °F 29.9 °F 33.8 °F 93% 29.80 in 7.0 mi NE 6.9 mph - N/A   Overcast
6:35 AM 37.4 °F 32.8 °F 33.8 °F 87% 29.80 in 7.0 mi NNE 5.8 mph - N/A   Overcast
6:45 AM 33.8 °F 28.6 °F 33.8 °F 100% 29.81 in 7.0 mi NE 5.8 mph - N/A Rain Light Rain
7:45 AM 33.8 °F 27.0 °F 33.8 °F 100% 29.79 in 5.0 mi NE 8.1 mph - N/A   Overcast
8:45 AM 35.6 °F 29.9 °F 33.8 °F 93% 29.77 in 3.0 mi NE 6.9 mph - N/A   Overcast
10:45 AM 35.6 °F 30.7 °F 33.8 °F 93% 29.78 in 3.0 mi North 5.8 mph - N/A Rain Light Rain
11:45 AM 35.6 °F 31.7 °F 33.8 °F 93% 29.78 in 3.0 mi NNW 4.6 mph - N/A Rain Light Rain
12:45 PM 39.2 °F 34.2 °F 35.6 °F 87% 29.76 in 7.0 mi North 6.9 mph - N/A   Overcast
1:45 PM 41.0 °F 36.4 °F 33.8 °F 76% 29.73 in 10.0 mi North 6.9 mph - N/A   Overcast
2:45 PM 41.0 °F 35.8 °F 33.8 °F 76% 29.72 in 10.0 mi North 8.1 mph - N/A   Overcast
3:45 PM 42.8 °F 39.3 °F 33.8 °F 70% 29.72 in 10.0 mi North 5.8 mph 13.8 mph N/A   Scattered Clouds
4:45 PM 44.6 °F 43.1 °F 33.8 °F 66% 29.72 in 10.0 mi NW 3.5 mph - N/A   Partly Cloudy
5:45 PM 46.4 °F 44.3 °F 32.0 °F 57% 29.71 in 10.0 mi West 4.6 mph - N/A   Partly Cloudy
6:45 PM 44.6 °F - 30.2 °F 57% 29.71 in 7.0 mi Calm Calm - N/A   Mostly Cloudy
7:45 PM 39.2 °F 37.0 °F 33.8 °F 81% 29.73 in 7.0 mi WSW 3.5 mph - N/A   Scattered Clouds
8:45 PM 39.2 °F 35.0 °F 32.0 °F 75% 29.75 in 10.0 mi WNW 5.8 mph - N/A   Scattered Clouds
9:45 PM 39.2 °F 33.0 °F 30.2 °F 70% 29.79 in 10.0 mi NNW 9.2 mph - N/A   Partly Cloudy
10:55 PM 39.2 °F 37.0 °F 26.6 °F 61% 29.80 in 10.0 mi WNW 3.5 mph - N/A   Mostly Cloudy
11:15 PM 39.2 °F 32.0 °F 23.0 °F 52% 29.80 in 10.0 mi WNW 11.5 mph 20.7 mph N/A   Scattered Clouds
11:35 PM 39.2 °F 32.5 °F 17.6 °F 42% 29.81 in 10.0 mi West 10.4 mph 16.1 mph N/A   Clear
11:55 PM 39.2 °F 31.6 °F 15.8 °F 39% 29.81 in 10.0 mi West 12.7 mph 19.6 mph N/A   Clear